Wind_Speed
14 14 14 14 16 15 14 13 13 13 12 12 11 11 11 10 9 8 7 6 5 5 4 4 4 5 5 5 5 5 5 7 7 7 7 7 7 7 7 8 7 7 7 7 7 6 5 4 4
14 14 14 15 17 13 14 14 14 13 12 11 11 11 10 10 9 8 7 7 6 6 5 5 4 4 4 4 5 5 5 6 7 7 7 7 7 6 6 7 7 7 8 8 7 6 5 5 4
14 14 15 16 14 13 14 14 13 13 13 12 11 10 10 9 9 8 7 7 6 5 5 4 3 3 4 4 5 5 5 5 7 7 7 7 7 6 6 7 8 8 8 8 7 7 6 5 4
13 14 15 15 14 14 14 13 13 13 13 13 12 11 10 10 9 8 7 6 6 5 5 4 3 2 3 3 4 4 5 6 6 6 6 6 6 6 6 7 9 8 8 8 8 7 6 5 4
13 15 15 14 13 13 13 13 13 13 13 12 12 12 11 10 9 9 8 7 6 5 5 4 3 2 2 3 3 4 4 5 6 6 6 6 7 7 7 8 9 9 8 8 8 8 7 5 5
14 15 14 12 12 12 12 12 12 12 12 12 12 11 11 10 10 9 8 7 6 5 5 4 3 2 2 2 3 3 3 4 4 5 6 6 7 7 8 8 9 9 9 8 8 7 6 6 6
13 13 13 12 12 11 11 12 12 12 12 13 12 12 10 10 10 9 8 7 6 5 5 5 4 3 1 1 2 3 3 3 4 5 6 6 6 7 7 8 8 9 9 9 9 8 7 7 7
11 11 10 10 10 10 11 11 12 12 12 12 12 12 11 10 9 9 8 7 6 6 6 5 5 3 2 1 1 2 3 3 3 4 5 6 6 7 7 8 8 9 9 9 9 9 8 8 8
10 10 9 10 10 10 11 11 12 12 12 11 12 11 10 9 9 9 8 7 6 6 6 6 5 3 2 1 0 2 3 3 3 4 5 5 6 6 7 8 8 8 8 9 9 10 9 9 8
9 9 9 9 9 10 10 11 11 11 11 11 11 11 11 10 9 8 7 6 7 7 6 6 5 3 3 2 1 1 2 2 3 3 4 4 5 6 7 7 8 8 9 9 9 9 9 9 9
8 9 8 8 8 9 10 10 10 11 10 11 11 11 11 11 10 9 8 6 6 6 6 6 5 4 3 2 1 1 1 1 2 3 3 3 4 5 6 7 8 8 8 8 9 9 9 9 8
7 8 8 8 8 8 9 9 10 10 10 10 10 10 10 11 11 10 9 7 6 6 6 6 6 5 4 3 2 1 1 1 1 2 3 3 3 4 5 5 6 7 8 8 10 9 9 8 8
5 6 7 7 7 7 8 8 9 9 9 9 10 10 10 10 11 10 9 8 7 6 6 6 6 5 5 4 3 2 1 0 1 1 2 3 3 3 4 5 6 7 7 8 9 9 9 9 8
4 4 5 5 6 6 7 8 8 9 9 9 9 10 10 10 10 10 9 8 8 7 6 7 6 4 4 4 3 3 2 1 1 0 1 2 3 3 4 4 6 6 7 8 9 9 9 9 9
2 4 4 4 4 5 6 7 8 9 9 9 10 10 10 10 10 10 9 9 8 7 7 7 6 4 3 4 3 3 2 1 1 0 0 1 2 3 3 5 6 6 7 7 7 8 9 9 10
2 4 4 3 3 4 5 6 7 8 8 8 9 9 10 10 10 10 10 9 8 8 8 8 6 4 3 3 3 3 2 1 1 1 1 1 2 3 4 4 5 6 7 6 6 8 9 10 10
1 1 2 3 4 4 4 5 6 7 8 7 8 8 9 9 9 10 10 10 9 8 8 7 6 5 4 3 2 3 2 2 1 1 2 1 2 2 3 5 5 6 6 7 7 8 8 10 10
3 2 2 3 4 4 4 5 6 7 7 7 8 8 8 9 9 10 10 10 10 9 8 7 6 5 4 4 3 3 2 2 2 2 2 2 1 2 2 4 4 5 6 7 7 7 7 8 9
4 4 4 4 5 5 5 6 6 6 7 8 8 8 8 8 9 10 10 10 10 9 9 7 6 5 4 4 4 3 2 2 2 2 2 2 1 1 2 2 3 4 5 6 7 7 7 8 8
5 5 5 5 5 5 5 6 6 6 7 8 8 8 8 8 8 9 10 9 9 9 9 8 7 6 5 5 4 3 3 3 3 3 3 2 2 2 2 3 3 4 5 6 6 7 7 8 8
6 6 6 6 6 6 6 7 7 7 8 8 8 8 8 9 9 8 9 8 9 9 9 9 8 7 7 5 4 4 4 3 3 4 4 3 3 4 4 4 5 5 5 6 6 6 7 8 9
8 8 8 7 6 6 6 5 8 8 8 9 8 8 9 9 9 9 9 9 9 10 9 9 8 8 8 6 6 5 5 4 4 4 5 4 4 5 5 6 6 5 5 6 7 7 8 8 8
10 9 9 8 8 7 7 5 7 8 8 9 9 9 9 9 10 9 9 9 9 9 10 9 8 8 8 7 6 6 6 5 5 5 6 6 6 6 7 7 7 7 7 7 7 8 8 9 9
10 9 8 8 8 8 8 6 7 8 9 9 10 10 9 9 10 10 10 10 10 10 9 9 8 8 8 7 7 7 6 6 6 6 7 8 7 7 7 8 8 8 8 8 8 8 9 10 10
9 7 8 8 8 10 10 8 8 8 9 10 10 10 10 10 10 10 11 10 10 10 9 9 8 8 9 8 8 8 8 8 8 8 9 9 9 9 9 9 9 9 9 9 9 9 10 10 11
9 8 8 7 8 10 11 10 10 10 10 10 11 12 12 12 12 12 11 11 11 10 10 10 9 9 9 9 10 10 10 9 10 10 10 10 10 10 10 10 10 10 10 10 11 11 11 11 12
12 10 10 9 10 10 11 12 11 10 10 11 13 13 13 13 12 12 12 12 12 11 11 11 11 10 10 11 11 11 12 12 12 12 11 11 11 12 12 12 11 11 11 12 12 12 12 13 13
13 12 11 10 12 11 12 12 12 12 12 12 13 14 14 14 14 13 13 13 12 12 12 12 13 13 13 13 13 13 13 13 13 13 13 13 13 13 14 14 13 13 13 13 14 14 14 15 15
14 13 13 13 13 11 11 13 13 14 14 14 14 14 15 15 14 14 13 13 14 14 14 14 14 14 15 15 15 15 14 14 14 14 15 14 14 15 15 14 15 15 15 15 15 16 16 17 17
16 15 14 14 14 13 12 14 15 15 15 15 15 15 15 15 15 15 14 14 15 15 16 16 16 16 17 17 17 17 16 15 15 15 15 15 15 15 15 15 15 15 16 17 17 17 17 17 17
Wind_Direction
84 81 85 86 78 75 75 74 74 74 74 74 73 75 77 75 71 70 67 68 74 85 102 119 134 152 168 175 175 169 160 164 161 161 158 159 169 175 179 178 173 174 175 171 169 171 164 164 163
87 84 86 84 81 79 74 74 74 74 72 71 71 71 72 69 69 68 65 71 77 84 96 111 134 152 160 170 175 173 169 167 169 170 169 169 171 176 179 179 179 181 182 186 179 175 171 168 171
89 84 86 82 82 83 78 75 73 72 69 70 69 66 64 63 62 60 59 70 79 83 90 97 119 153 166 170 175 178 179 178 177 174 173 175 178 180 181 184 184 182 181 188 192 185 175 173 171
90 88 83 80 81 80 76 75 75 70 68 68 66 63 61 59 56 55 58 69 72 78 91 91 96 139 172 177 176 184 182 183 180 186 185 177 178 185 186 189 186 183 183 186 184 186 187 183 181
90 87 81 78 78 75 71 70 70 66 65 62 61 60 59 58 54 53 55 61 65 69 77 74 76 91 158 183 186 184 190 192 191 197 198 191 185 184 186 188 190 188 188 184 187 192 192 184 180
88 84 85 81 75 71 68 66 64 62 59 58 57 57 57 56 52 51 51 54 60 67 68 61 57 75 124 168 188 192 196 197 202 207 204 199 200 201 196 198 199 197 194 193 196 192 191 189 189
88 84 82 77 69 65 64 62 61 62 59 57 56 54 55 54 51 48 49 52 56 58 56 50 43 50 79 153 189 198 209 212 216 221 216 208 215 216 211 207 208 206 201 196 197 200 202 203 204
87 81 78 75 68 64 63 60 59 59 57 56 56 52 49 48 47 44 46 50 48 45 48 42 38 42 53 79 187 207 209 216 217 223 222 216 214 216 214 211 212 211 204 200 201 205 210 211 208
87 82 81 76 71 65 61 58 56 57 54 52 52 49 44 41 42 40 41 48 41 37 38 32 29 33 42 46 36 217 217 223 223 228 227 213 209 209 212 215 214 212 208 203 205 210 213 213 213
85 85 81 74 69 64 58 54 52 51 49 45 44 45 40 36 36 35 36 36 28 24 22 18 22 20 20 18 3 236 223 227 227 232 230 210 201 206 210 215 214 216 209 205 208 212 214 214 218
80 84 81 72 64 58 56 52 46 46 44 37 37 36 34 33 32 30 24 18 14 15 16 10 15 22 22 15 352 336 259 229 239 238 230 215 211 212 209 214 215 213 207 208 208 209 213 216 221
79 73 70 61 54 49 50 48 39 38 36 34 31 28 26 27 27 24 21 17 13 15 15 13 18 21 26 25 13 2 318 254 245 229 221 215 218 220 212 210 211 208 207 210 212 212 219 222 225
75 65 61 55 48 41 42 38 30 30 27 30 24 21 21 21 19 18 17 18 15 14 14 9 16 25 27 29 27 23 12 290 219 218 218 209 204 202 206 207 203 207 212 211 213 214 220 225 233
69 60 57 50 42 36 33 27 24 25 26 24 21 19 17 16 17 16 15 19 17 20 18 12 12 18 27 30 24 15 15 43 63 211 223 218 214 213 210 213 211 212 212 212 215 215 223 230 236
75 62 47 34 29 27 25 19 19 20 22 20 19 18 16 15 13 11 12 17 19 18 15 13 14 20 26 31 29 26 24 28 32 10 275 251 236 230 232 230 221 216 217 218 223 225 229 234 239
56 47 21 1 6 15 23 6 8 12 14 16 14 13 11 10 8 8 7 11 16 14 12 10 11 16 21 25 22 19 18 13 9 337 319 274 251 242 238 235 231 226 225 227 230 233 237 240 241
346 2 333 337 347 360 11 2 359 4 6 7 8 8 7 4 2 3 4 3 8 10 9 7 6 11 22 25 16 12 5 2 358 351 331 305 272 253 244 241 248 241 241 240 245 246 245 246 245
248 271 299 314 329 337 341 343 346 352 356 1 1 358 359 358 356 2 2 3 7 6 7 9 10 11 18 22 16 13 6 12 19 359 333 310 288 264 264 261 262 249 249 249 253 252 250 249 247
248 268 285 303 318 328 331 332 330 336 343 348 353 351 351 352 357 0 360 0 5 4 6 11 8 8 14 11 359 355 355 358 7 1 338 327 313 292 282 275 271 264 259 256 257 257 251 250 247
257 269 284 301 313 321 322 321 324 328 333 336 340 343 346 348 349 353 358 1 4 2 2 2 0 6 4 357 355 353 346 340 344 344 331 333 325 316 312 301 288 278 272 267 265 260 251 250 249
255 265 274 288 305 316 317 318 317 324 328 330 331 335 340 340 342 345 347 351 356 355 354 356 356 356 351 348 347 343 332 322 315 317 320 326 318 311 309 308 296 289 286 280 272 259 255 252 250
255 265 271 284 300 307 314 299 305 314 322 326 327 329 330 331 332 336 339 339 343 345 343 343 346 349 347 347 342 334 330 325 312 311 309 303 301 306 302 299 293 289 282 277 270 264 260 256 251
255 263 269 279 290 295 299 290 291 305 312 317 317 319 320 320 322 326 329 329 331 334 335 333 334 336 339 341 339 332 331 326 314 311 310 301 292 297 295 290 288 284 277 278 278 269 264 259 257
261 265 274 282 290 291 287 284 288 300 306 304 306 309 310 309 310 315 318 321 323 323 326 325 327 327 326 326 329 323 319 319 319 314 308 300 294 292 293 288 285 285 279 276 274 273 270 265 264
258 267 276 282 285 283 285 285 288 297 297 297 299 303 305 305 306 308 311 314 316 315 317 319 320 319 318 315 314 315 316 312 312 312 310 305 299 296 290 286 283 282 279 277 277 275 274 269 269
247 249 252 264 277 284 288 287 291 295 296 296 299 302 302 302 303 304 304 306 307 309 310 311 312 313 314 313 311 309 310 307 309 310 308 304 301 301 300 293 282 282 280 280 279 277 274 274 272
246 250 251 263 275 282 285 289 289 291 294 293 297 302 300 299 300 300 300 301 301 302 303 304 305 307 308 307 306 305 304 301 301 302 303 300 296 295 298 297 290 282 280 281 282 280 277 277 278
248 253 258 261 268 277 285 291 289 292 294 296 297 299 298 296 295 296 297 297 296 295 296 300 301 301 302 302 301 301 299 296 296 296 296 296 291 288 291 290 291 287 281 281 281 280 278 278 278
253 256 259 263 264 268 280 284 287 292 296 296 295 297 298 296 294 293 292 292 292 292 292 293 294 295 297 298 297 297 299 296 294 292 292 292 290 287 289 288 288 290 291 286 283 281 276 276 276
257 259 259 262 268 271 275 282 289 290 294 294 294 295 296 296 296 295 294 292 289 288 289 291 292 293 294 295 295 295 296 296 294 293 292 291 290 287 287 287 287 286 287 287 286 282 279 277 278
Height
5908 5907 5907 5908 5908 5909 5907 5906 5905 5903 5902 5901 5900 5898 5898 5897 5897 5898 5895 5892 5891 5890 5889 5889 5889 5889 5889 5889 5889 5889 5889 5889 5890 5891 5891 5891 5892 5893 5893 5894 5895 5895 5896 5897 5898 5898 5899 5899 5900
5910 5909 5910 5910 5911 5911 5909 5907 5906 5904 5903 5902 5900 5899 5898 5897 5897 5896 5894 5893 5892 5891 5890 5890 5890 5889 5889 5889 5889 5889 5889 5889 5890 5890 5891 5891 5892 5893 5893 5894 5894 5895 5895 5896 5897 5898 5899 5899 5900
5912 5912 5912 5912 5912 5912 5911 5909 5907 5905 5904 5903 5902 5901 5899 5898 5897 5896 5895 5893 5892 5891 5891 5891 5890 5890 5889 5889 5889 5889 5889 5889 5889 5890 5890 5890 5891 5892 5893 5893 5894 5895 5895 5896 5896 5898 5898 5899 5900
5914 5915 5915 5915 5914 5913 5911 5910 5908 5907 5905 5904 5903 5901 5900 5899 5897 5896 5895 5894 5893 5892 5892 5891 5891 5890 5890 5889 5889 5889 5889 5889 5889 5890 5890 5890 5890 5891 5892 5893 5893 5894 5895 5895 5896 5897 5898 5899 5899
5916 5917 5918 5918 5916 5915 5913 5911 5910 5908 5907 5905 5904 5902 5901 5900 5898 5897 5896 5894 5894 5893 5892 5891 5891 5890 5889 5889 5889 5889 5889 5889 5889 5889 5889 5890 5890 5890 5891 5892 5893 5894 5894 5895 5896 5897 5898 5899 5899
5918 5919 5921 5919 5918 5916 5915 5913 5911 5910 5908 5907 5905 5903 5902 5900 5899 5897 5896 5895 5894 5893 5893 5892 5891 5890 5890 5889 5889 5889 5889 5888 5888 5888 5889 5889 5889 5889 5890 5891 5892 5893 5893 5894 5896 5897 5898 5899 5899
5921 5921 5921 5920 5919 5918 5916 5914 5913 5911 5909 5908 5906 5905 5903 5901 5900 5898 5897 5896 5895 5894 5893 5892 5891 5890 5890 5889 5889 5889 5888 5888 5888 5888 5888 5888 5888 5888 5889 5889 5890 5891 5893 5894 5895 5896 5897 5898 5899
5922 5924 5923 5922 5921 5919 5918 5916 5914 5912 5911 5909 5907 5906 5904 5902 5901 5899 5897 5896 5895 5894 5893 5892 5891 5891 5890 5889 5889 5889 5888 5888 5887 5887 5887 5887 5887 5887 5887 5888 5889 5890 5891 5892 5894 5895 5896 5897 5898
5923 5926 5924 5923 5922 5921 5919 5917 5916 5914 5912 5910 5908 5907 5905 5903 5901 5900 5898 5897 5896 5895 5894 5893 5892 5891 5890 5889 5889 5888 5888 5887 5887 5886 5886 5886 5886 5886 5886 5887 5887 5889 5890 5891 5893 5894 5896 5896 5897
5925 5926 5925 5924 5923 5921 5920 5918 5917 5915 5913 5911 5909 5907 5905 5904 5902 5901 5899 5898 5897 5895 5894 5893 5892 5891 5890 5889 5888 5888 5887 5887 5886 5886 5885 5884 5884 5885 5885 5886 5886 5887 5888 5890 5891 5893 5894 5895 5896
5926 5926 5925 5924 5923 5922 5921 5920 5918 5916 5914 5912 5911 5908 5906 5905 5903 5901 5900 5898 5897 5895 5894 5893 5892 5891 5889 5889 5888 5887 5887 5886 5886 5885 5885 5884 5883 5884 5884 5885 5885 5886 5887 5889 5890 5892 5893 5895 5896
5927 5927 5926 5925 5924 5923 5922 5921 5919 5917 5916 5914 5911 5909 5907 5905 5904 5902 5900 5898 5897 5895 5894 5893 5892 5890 5889 5888 5887 5887 5886 5886 5886 5885 5885 5884 5883 5883 5883 5884 5884 5885 5886 5888 5889 5891 5893 5894 5895
5928 5927 5926 5925 5924 5923 5923 5921 5920 5918 5916 5914 5912 5910 5908 5907 5904 5902 5900 5898 5896 5895 5894 5893 5892 5890 5889 5888 5887 5887 5886 5886 5885 5885 5884 5884 5883 5883 5883 5883 5884 5885 5886 5887 5889 5890 5892 5893 5893
5929 5928 5927 5926 5925 5924 5923 5922 5921 5919 5917 5915 5913 5911 5909 5907 5905 5903 5901 5899 5897 5896 5895 5893 5892 5891 5889 5888 5887 5887 5886 5886 5885 5885 5884 5884 5884 5883 5883 5884 5884 5885 5886 5887 5888 5889 5890 5891 5892
5929 5928 5928 5927 5926 5925 5924 5923 5921 5920 5918 5916 5914 5912 5910 5908 5906 5904 5902 5900 5898 5897 5895 5894 5892 5891 5890 5888 5887 5887 5886 5886 5885 5885 5884 5884 5883 5883 5883 5883 5884 5884 5885 5886 5887 5888 5889 5890 5890
5929 5930 5930 5928 5926 5926 5926 5925 5922 5920 5919 5917 5915 5913 5911 5909 5907 5905 5903 5901 5900 5898 5896 5894 5892 5891 5890 5888 5887 5887 5886 5885 5885 5885 5884 5884 5883 5883 5883 5883 5883 5884 5884 5885 5886 5886 5887 5888 5888
5930 5931 5930 5929 5927 5926 5926 5925 5923 5921 5919 5917 5916 5914 5912 5910 5908 5906 5904 5902 5900 5898 5896 5895 5893 5891 5890 5889 5887 5887 5886 5886 5885 5885 5884 5884 5883 5883 5883 5883 5883 5883 5883 5884 5884 5885 5885 5886 5886
5931 5930 5929 5928 5927 5926 5925 5924 5923 5921 5919 5918 5916 5914 5912 5910 5908 5906 5904 5902 5900 5899 5897 5895 5893 5891 5890 5889 5888 5887 5886 5886 5885 5885 5884 5883 5883 5883 5882 5882 5882 5882 5882 5883 5883 5883 5883 5884 5884
5929 5929 5928 5928 5926 5926 5925 5924 5923 5921 5920 5918 5916 5915 5913 5911 5909 5907 5905 5903 5901 5899 5897 5895 5893 5892 5890 5889 5888 5887 5886 5886 5885 5885 5884 5883 5883 5882 5882 5882 5882 5882 5882 5881 5882 5882 5882 5882 5882
5927 5927 5927 5926 5925 5925 5924 5923 5922 5921 5920 5918 5916 5915 5913 5911 5909 5907 5905 5903 5902 5900 5898 5895 5894 5892 5891 5889 5888 5887 5886 5886 5885 5885 5884 5883 5883 5882 5882 5881 5881 5881 5881 5880 5880 5880 5880 5881 5881
5926 5926 5926 5925 5925 5924 5924 5924 5922 5921 5919 5918 5916 5914 5913 5911 5909 5907 5905 5904 5902 5900 5898 5896 5894 5892 5891 5889 5888 5887 5886 5885 5885 5884 5884 5883 5882 5882 5881 5881 5880 5880 5879 5879 5879 5879 5879 5879 5879
5924 5924 5924 5924 5924 5924 5924 5925 5922 5920 5919 5917 5915 5914 5912 5911 5909 5907 5905 5903 5901 5899 5897 5895 5894 5892 5891 5889 5888 5887 5886 5885 5884 5884 5883 5883 5882 5881 5881 5880 5880 5879 5878 5878 5877 5877 5877 5878 5878
5922 5922 5922 5922 5922 5923 5922 5923 5923 5919 5918 5916 5914 5913 5911 5910 5908 5906 5904 5903 5901 5899 5897 5895 5893 5892 5890 5889 5888 5887 5886 5884 5883 5883 5882 5882 5881 5880 5879 5879 5878 5877 5877 5876 5876 5876 5876 5876 5876
5919 5920 5921 5921 5921 5922 5921 5921 5921 5919 5917 5915 5913 5911 5910 5908 5907 5905 5903 5902 5900 5898 5896 5894 5892 5891 5890 5889 5888 5887 5885 5884 5883 5882 5881 5880 5880 5879 5878 5877 5876 5876 5875 5875 5874 5874 5874 5873 5873
5917 5919 5921 5921 5922 5921 5919 5918 5918 5916 5914 5913 5911 5909 5908 5906 5905 5903 5902 5900 5898 5897 5895 5893 5892 5890 5889 5888 5887 5886 5884 5883 5882 5881 5880 5879 5878 5877 5876 5875 5874 5874 5873 5873 5872 5872 5871 5871 5870
5915 5917 5919 5921 5921 5919 5916 5915 5916 5913 5911 5910 5908 5907 5906 5904 5903 5901 5900 5898 5897 5895 5894 5892 5891 5889 5888 5887 5885 5884 5883 5882 5881 5879 5878 5877 5876 5875 5874 5873 5872 5872 5871 5870 5870 5869 5869 5868 5867
5912 5913 5915 5916 5916 5916 5915 5913 5911 5910 5908 5907 5906 5904 5903 5901 5900 5899 5897 5896 5895 5893 5892 5891 5889 5888 5887 5885 5884 5882 5881 5880 5879 5877 5876 5874 5873 5872 5871 5870 5869 5869 5868 5867 5867 5866 5865 5865 5864
5909 5910 5911 5912 5912 5913 5912 5911 5909 5907 5906 5905 5903 5902 5900 5899 5897 5896 5895 5893 5892 5891 5890 5889 5887 5886 5885 5883 5882 5880 5879 5877 5876 5875 5873 5872 5870 5869 5869 5868 5866 5865 5864 5864 5863 5862 5862 5861 5860
5906 5907 5907 5908 5908 5909 5910 5910 5906 5904 5902 5901 5900 5898 5897 5896 5894 5893 5891 5890 5889 5888 5887 5886 5885 5883 5882 5880 5879 5877 5876 5874 5873 5871 5870 5868 5867 5866 5865 5864 5863 5862 5861 5860 5859 5858 5858 5857 5856
5902 5903 5904 5905 5904 5904 5905 5907 5901 5900 5899 5897 5896 5895 5894 5892 5891 5889 5888 5886 5885 5884 5883 5882 5881 5880 5879 5877 5876 5874 5873 5871 5869 5867 5866 5865 5863 5862 5862 5861 5859 5858 5857 5856 5855 5854 5853 5852 5851